Time,TemperatureF,DewpointF,PressureIn,WindDirection,WindDirectionDegrees,WindSpeedMPH,WindSpeedGustMPH,Humidity,HourlyPrecipIn,Conditions,Clouds,dailyrainin,SoftwareType,DateUTC
2013-03-27 00:03:00,50.9,42.6,29.73,North,0,0.0,0.4,73,0.00,,,0.00,WUHU216HW,2013-03-27 07:03:00,
2013-03-27 00:08:00,50.9,42.6,29.73,North,0,0.0,0.2,73,0.00,,,0.00,WUHU216HW,2013-03-27 07:08:00,
2013-03-27 00:13:00,50.8,42.4,29.73,North,0,0.0,0.2,73,0.00,,,0.00,WUHU216HW,2013-03-27 07:13:00,
2013-03-27 00:18:00,50.6,42.6,29.73,North,0,0.0,0.2,74,0.00,,,0.00,WUHU216HW,2013-03-27 07:18:00,
2013-03-27 00:23:00,50.4,42.4,29.73,North,0,0.0,0.2,74,0.00,,,0.00,WUHU216HW,2013-03-27 07:23:00,
2013-03-27 00:28:00,50.4,42.4,29.73,North,0,0.0,0.2,74,0.00,,,0.00,WUHU216HW,2013-03-27 07:28:00,
2013-03-27 00:34:00,50.4,42.4,29.72,North,0,0.0,0.2,74,0.00,,,0.00,WUHU216HW,2013-03-27 07:34:00,
2013-03-27 00:39:00,50.4,42.8,29.72,North,0,0.0,0.0,75,0.00,,,0.00,WUHU216HW,2013-03-27 07:39:00,
2013-03-27 00:44:00,50.2,42.6,29.72,North,0,0.0,0.0,75,0.00,,,0.00,WUHU216HW,2013-03-27 07:44:00,
2013-03-27 00:49:00,50.2,42.6,29.72,North,0,0.2,0.2,75,0.00,,,0.00,WUHU216HW,2013-03-27 07:49:00,
2013-03-27 00:54:00,50.2,42.6,29.72,North,0,0.0,0.2,75,0.00,,,0.00,WUHU216HW,2013-03-27 07:54:00,
2013-03-27 00:59:00,50.4,43.1,29.72,North,0,0.0,0.2,76,0.00,,,0.00,WUHU216HW,2013-03-27 07:59:00,
2013-03-27 01:04:00,50.6,42.9,29.72,North,0,0.0,0.2,75,0.00,,,0.00,WUHU216HW,2013-03-27 08:04:00,
2013-03-27 01:09:00,50.8,43.5,29.72,North,0,0.0,0.4,76,0.00,,,0.00,WUHU216HW,2013-03-27 08:09:00,
2013-03-27 01:14:00,50.8,43.5,29.72,North,0,0.2,0.4,76,0.00,,,0.00,WUHU216HW,2013-03-27 08:14:00,
2013-03-27 01:19:00,51.1,43.5,29.72,NNW,338,0.2,0.2,75,0.00,,,0.00,WUHU216HW,2013-03-27 08:19:00,
2013-03-27 01:24:00,51.1,43.5,29.72,North,0,0.0,0.2,75,0.00,,,0.00,WUHU216HW,2013-03-27 08:24:00,
2013-03-27 01:29:00,51.1,43.5,29.72,North,0,0.0,0.0,75,0.00,,,0.00,WUHU216HW,2013-03-27 08:29:00,
2013-03-27 01:34:00,51.1,43.5,29.72,North,0,0.0,0.0,75,0.00,,,0.00,WUHU216HW,2013-03-27 08:34:00,
2013-03-27 01:39:00,50.9,43.3,29.72,North,0,0.0,0.0,75,0.00,,,0.00,WUHU216HW,2013-03-27 08:39:00,
2013-03-27 01:44:00,50.9,43.3,29.72,North,0,0.0,0.0,75,0.00,,,0.00,WUHU216HW,2013-03-27 08:44:00,
2013-03-27 01:49:00,50.9,43.3,29.72,North,0,0.0,0.2,75,0.00,,,0.00,WUHU216HW,2013-03-27 08:49:00,
2013-03-27 01:54:00,50.8,43.1,29.72,North,0,0.0,0.2,75,0.00,,,0.00,WUHU216HW,2013-03-27 08:54:00,
2013-03-27 02:00:00,50.6,42.9,29.72,North,0,0.0,0.2,75,0.00,,,0.00,WUHU216HW,2013-03-27 09:00:00,
2013-03-27 02:05:00,50.4,42.8,29.71,North,0,0.0,0.2,75,0.00,,,0.00,WUHU216HW,2013-03-27 09:05:00,
2013-03-27 02:10:00,50.2,42.6,29.71,North,0,0.0,0.4,75,0.00,,,0.00,WUHU216HW,2013-03-27 09:10:00,
2013-03-27 02:15:00,50.0,42.4,29.71,ENE,68,0.0,0.4,75,0.00,,,0.00,WUHU216HW,2013-03-27 09:15:00,
2013-03-27 02:20:00,49.9,42.2,29.71,East,90,0.2,0.4,75,0.00,,,0.00,WUHU216HW,2013-03-27 09:20:00,
2013-03-27 02:25:00,49.7,42.0,29.71,ENE,68,0.0,0.4,75,0.00,,,0.00,WUHU216HW,2013-03-27 09:25:00,
2013-03-27 02:30:00,49.7,42.4,29.71,ENE,68,0.0,0.2,76,0.00,,,0.00,WUHU216HW,2013-03-27 09:30:00,
2013-03-27 02:35:00,49.5,42.2,29.70,ENE,68,0.0,0.2,76,0.00,,,0.00,WUHU216HW,2013-03-27 09:35:00,
2013-03-27 02:40:00,49.3,42.0,29.70,ENE,68,0.0,0.0,76,0.00,,,0.00,WUHU216HW,2013-03-27 09:40:00,
2013-03-27 02:45:00,49.3,42.4,29.71,ENE,68,0.0,0.0,77,0.00,,,0.00,WUHU216HW,2013-03-27 09:45:00,
2013-03-27 02:50:00,49.1,42.2,29.71,ENE,68,0.4,0.4,77,0.00,,,0.00,WUHU216HW,2013-03-27 09:50:00,
2013-03-27 02:55:00,49.3,42.4,29.71,ENE,68,0.4,0.4,77,0.00,,,0.00,WUHU216HW,2013-03-27 09:55:00,
2013-03-27 03:00:00,49.3,42.4,29.70,East,90,0.2,0.4,77,0.00,,,0.00,WUHU216HW,2013-03-27 10:00:00,
2013-03-27 03:05:00,49.3,42.7,29.70,East,90,0.0,0.4,78,0.00,,,0.00,WUHU216HW,2013-03-27 10:05:00,
2013-03-27 03:10:00,49.3,42.7,29.70,East,90,0.0,0.4,78,0.00,,,0.00,WUHU216HW,2013-03-27 10:10:00,
2013-03-27 03:15:00,49.3,42.7,29.71,ENE,68,0.0,0.4,78,0.00,,,0.00,WUHU216HW,2013-03-27 10:15:00,
2013-03-27 03:20:00,49.5,42.8,29.70,ENE,68,0.4,0.4,78,0.00,,,0.00,WUHU216HW,2013-03-27 10:20:00,
2013-03-27 03:26:00,49.5,42.8,29.70,East,90,0.2,0.4,78,0.00,,,0.00,WUHU216HW,2013-03-27 10:26:00,
2013-03-27 03:31:00,49.7,43.4,29.70,East,90,0.0,0.4,79,0.00,,,0.00,WUHU216HW,2013-03-27 10:31:00,
2013-03-27 03:36:00,49.7,43.4,29.70,ENE,68,0.2,0.2,79,0.00,,,0.00,WUHU216HW,2013-03-27 10:36:00,
2013-03-27 03:41:00,49.7,43.4,29.70,East,90,0.2,0.4,79,0.00,,,0.00,WUHU216HW,2013-03-27 10:41:00,
2013-03-27 03:46:00,49.7,43.7,29.70,ESE,113,0.7,1.1,80,0.00,,,0.00,WUHU216HW,2013-03-27 10:46:00,
2013-03-27 03:51:00,49.7,43.7,29.70,ESE,113,0.2,1.1,80,0.00,,,0.00,WUHU216HW,2013-03-27 10:51:00,
2013-03-27 03:56:00,49.7,43.7,29.70,ESE,113,0.2,0.7,80,0.00,,,0.00,WUHU216HW,2013-03-27 10:56:00,
2013-03-27 04:01:00,49.9,43.9,29.70,East,90,0.0,0.4,80,0.00,,,0.00,WUHU216HW,2013-03-27 11:01:00,
2013-03-27 04:06:00,49.9,43.9,29.70,East,90,0.2,0.4,80,0.00,,,0.00,WUHU216HW,2013-03-27 11:06:00,
2013-03-27 04:11:00,49.9,43.9,29.70,East,90,0.2,0.4,80,0.00,,,0.00,WUHU216HW,2013-03-27 11:11:00,
2013-03-27 04:16:00,49.9,43.9,29.70,East,90,0.4,0.4,80,0.00,,,0.00,WUHU216HW,2013-03-27 11:16:00,
2013-03-27 04:21:00,49.7,43.7,29.70,ESE,113,0.0,0.4,80,0.00,,,0.00,WUHU216HW,2013-03-27 11:21:00,
2013-03-27 04:27:00,49.5,43.6,29.70,ESE,113,0.0,0.4,80,0.00,,,0.00,WUHU216HW,2013-03-27 11:27:00,
2013-03-27 04:32:00,49.3,43.4,29.70,East,90,0.0,1.1,80,0.00,,,0.00,WUHU216HW,2013-03-27 11:32:00,
2013-03-27 04:37:00,49.3,43.4,29.70,East,90,0.2,1.1,80,0.00,,,0.00,WUHU216HW,2013-03-27 11:37:00,
2013-03-27 04:42:00,49.3,43.4,29.70,East,90,0.0,0.2,80,0.00,,,0.00,WUHU216HW,2013-03-27 11:42:00,
2013-03-27 04:47:00,49.1,43.2,29.70,East,90,0.4,0.4,80,0.00,,,0.00,WUHU216HW,2013-03-27 11:47:00,
2013-03-27 04:52:00,49.3,43.7,29.70,East,90,1.6,1.6,81,0.00,,,0.00,WUHU216HW,2013-03-27 11:52:00,
2013-03-27 04:57:00,49.3,43.7,29.70,ESE,113,0.4,1.6,81,0.00,,,0.00,WUHU216HW,2013-03-27 11:57:00,
2013-03-27 05:02:00,49.3,43.7,29.69,East,90,1.3,1.6,81,0.00,,,0.00,WUHU216HW,2013-03-27 12:02:00,
2013-03-27 05:07:00,49.3,44.0,29.69,East,90,0.2,1.6,82,0.00,,,0.00,WUHU216HW,2013-03-27 12:07:00,
2013-03-27 05:12:00,49.3,44.0,29.69,ESE,113,0.2,0.4,82,0.00,,,0.00,WUHU216HW,2013-03-27 12:12:00,
2013-03-27 05:18:00,49.3,44.0,29.69,SSE,158,0.2,0.9,82,0.00,,,0.00,WUHU216HW,2013-03-27 12:18:00,
2013-03-27 05:23:00,49.3,44.0,29.69,SSE,158,0.2,0.9,82,0.00,,,0.00,WUHU216HW,2013-03-27 12:23:00,
2013-03-27 05:28:00,49.3,44.0,29.69,SW,225,0.4,0.4,82,0.00,,,0.00,WUHU216HW,2013-03-27 12:28:00,
2013-03-27 05:33:00,49.3,44.3,29.70,SSE,158,0.4,0.7,83,0.00,,,0.00,WUHU216HW,2013-03-27 12:33:00,
2013-03-27 05:38:00,49.3,44.3,29.70,ESE,113,0.0,0.7,83,0.00,,,0.00,WUHU216HW,2013-03-27 12:38:00,
2013-03-27 05:43:00,49.3,44.3,29.70,ESE,113,0.2,0.2,83,0.00,,,0.00,WUHU216HW,2013-03-27 12:43:00,
2013-03-27 05:48:00,49.3,44.3,29.70,ESE,113,0.9,1.8,83,0.00,,,0.00,WUHU216HW,2013-03-27 12:48:00,
2013-03-27 05:53:00,49.5,44.5,29.70,ENE,68,1.6,1.8,83,0.00,,,0.00,WUHU216HW,2013-03-27 12:53:00,
2013-03-27 05:58:00,49.5,44.5,29.70,SSE,158,0.0,1.6,83,0.00,,,0.00,WUHU216HW,2013-03-27 12:58:00,
2013-03-27 06:03:00,49.5,44.5,29.70,SSE,158,0.2,0.2,83,0.00,,,0.00,WUHU216HW,2013-03-27 13:03:00,
2013-03-27 06:08:00,49.5,44.5,29.70,SSE,158,0.0,0.2,83,0.00,,,0.00,WUHU216HW,2013-03-27 13:08:00,
2013-03-27 06:13:00,49.5,44.5,29.70,SW,225,0.0,0.2,83,0.00,,,0.00,WUHU216HW,2013-03-27 13:13:00,
2013-03-27 06:18:00,49.5,44.5,29.70,SW,225,0.0,0.2,83,0.00,,,0.00,WUHU216HW,2013-03-27 13:18:00,
2013-03-27 06:24:00,49.5,44.5,29.70,SW,225,0.0,0.0,83,0.00,,,0.00,WUHU216HW,2013-03-27 13:24:00,
2013-03-27 06:29:00,49.5,44.5,29.70,SW,225,0.0,0.0,83,0.00,,,0.00,WUHU216HW,2013-03-27 13:29:00,
2013-03-27 06:34:00,49.7,44.6,29.70,ESE,113,0.4,0.7,83,0.00,,,0.00,WUHU216HW,2013-03-27 13:34:00,
2013-03-27 06:39:00,49.7,44.6,29.70,ESE,113,0.2,0.7,83,0.00,,,0.00,WUHU216HW,2013-03-27 13:39:00,
2013-03-27 06:44:00,49.7,44.6,29.70,ESE,113,0.9,0.9,83,0.00,,,0.00,WUHU216HW,2013-03-27 13:44:00,
2013-03-27 06:49:00,49.7,44.6,29.70,SE,135,0.0,0.9,83,0.00,,,0.00,WUHU216HW,2013-03-27 13:49:00,
2013-03-27 06:54:00,49.7,44.6,29.70,SE,135,0.0,0.7,83,0.00,,,0.00,WUHU216HW,2013-03-27 13:54:00,
2013-03-27 06:59:00,49.7,44.6,29.70,SE,135,0.9,1.3,83,0.00,,,0.00,WUHU216HW,2013-03-27 13:59:00,
2013-03-27 07:04:00,49.7,44.6,29.70,ESE,113,0.9,1.8,83,0.00,,,0.00,WUHU216HW,2013-03-27 14:04:00,
2013-03-27 07:09:00,49.7,44.6,29.70,SE,135,1.1,1.8,83,0.00,,,0.00,WUHU216HW,2013-03-27 14:09:00,
2013-03-27 07:14:00,49.5,44.5,29.70,SSE,158,0.4,1.1,83,0.00,,,0.00,WUHU216HW,2013-03-27 14:14:00,
2013-03-27 07:19:00,49.5,44.8,29.70,South,180,0.2,0.7,84,0.00,,,0.00,WUHU216HW,2013-03-27 14:19:00,
2013-03-27 07:24:00,49.7,45.0,29.70,SSW,203,0.0,0.4,84,0.00,,,0.00,WUHU216HW,2013-03-27 14:24:00,
2013-03-27 07:30:00,49.7,45.0,29.70,SSW,203,0.0,0.2,84,0.00,,,0.00,WUHU216HW,2013-03-27 14:30:00,
2013-03-27 07:35:00,49.9,45.2,29.71,SSW,203,0.0,0.2,84,0.00,,,0.00,WUHU216HW,2013-03-27 14:35:00,
2013-03-27 07:40:00,50.0,45.4,29.71,SSW,203,0.0,0.2,84,0.00,,,0.00,WUHU216HW,2013-03-27 14:40:00,
2013-03-27 07:45:00,50.0,45.4,29.71,SSW,203,0.0,0.2,84,0.00,,,0.00,WUHU216HW,2013-03-27 14:45:00,
2013-03-27 07:50:00,50.2,45.6,29.71,SSW,203,0.0,0.0,84,0.00,,,0.00,WUHU216HW,2013-03-27 14:50:00,
2013-03-27 07:55:00,50.6,45.9,29.71,SSW,203,0.0,0.0,84,0.00,,,0.00,WUHU216HW,2013-03-27 14:55:00,
2013-03-27 08:00:00,50.6,45.9,29.71,SSW,203,0.0,0.0,84,0.00,,,0.00,WUHU216HW,2013-03-27 15:00:00,
2013-03-27 08:05:00,50.8,46.1,29.71,South,180,0.0,0.0,84,0.00,,,0.00,WUHU216HW,2013-03-27 15:05:00,
2013-03-27 08:10:00,50.9,46.3,29.71,SSW,203,0.2,0.4,84,0.00,,,0.00,WUHU216HW,2013-03-27 15:10:00,
2013-03-27 08:15:00,51.1,46.5,29.71,SSW,203,0.0,0.4,84,0.00,,,0.00,WUHU216HW,2013-03-27 15:15:00,
2013-03-27 08:20:00,51.5,46.4,29.71,SSW,203,0.0,0.4,83,0.00,,,0.00,WUHU216HW,2013-03-27 15:20:00,
2013-03-27 08:25:00,51.5,46.4,29.72,SSW,203,0.2,0.4,83,0.00,,,0.00,WUHU216HW,2013-03-27 15:25:00,
2013-03-27 08:30:00,51.8,46.8,29.72,South,180,1.3,1.8,83,0.00,,,0.00,WUHU216HW,2013-03-27 15:30:00,
2013-03-27 08:35:00,52.0,46.7,29.72,South,180,0.7,1.8,82,0.00,,,0.00,WUHU216HW,2013-03-27 15:35:00,
2013-03-27 08:40:00,52.2,46.9,29.72,ESE,113,2.2,2.2,82,0.00,,,0.00,WUHU216HW,2013-03-27 15:40:00,
2013-03-27 08:45:00,52.2,46.9,29.71,East,90,2.0,2.2,82,0.00,,,0.00,WUHU216HW,2013-03-27 15:45:00,
2013-03-27 08:50:00,52.7,47.1,29.72,East,90,0.4,2.2,81,0.00,,,0.00,WUHU216HW,2013-03-27 15:50:00,
2013-03-27 08:55:00,52.9,47.3,29.72,SE,135,0.0,2.2,81,0.00,,,0.00,WUHU216HW,2013-03-27 15:55:00,
2013-03-27 09:01:00,53.3,47.6,29.72,ESE,113,0.2,2.2,81,0.00,,,0.00,WUHU216HW,2013-03-27 16:01:00,
2013-03-27 09:06:00,53.5,47.8,29.72,SE,135,0.4,2.2,81,0.00,,,0.00,WUHU216HW,2013-03-27 16:06:00,
2013-03-27 09:11:00,53.6,47.7,29.72,SE,135,2.9,2.9,80,0.00,,,0.00,WUHU216HW,2013-03-27 16:11:00,
2013-03-27 09:16:00,54.0,48.1,29.72,South,180,2.0,2.9,80,0.00,,,0.00,WUHU216HW,2013-03-27 16:16:00,
2013-03-27 09:21:00,54.2,47.8,29.72,SSE,158,1.8,2.9,79,0.00,,,0.00,WUHU216HW,2013-03-27 16:21:00,
2013-03-27 09:26:00,54.4,48.0,29.72,SSE,158,0.2,3.4,79,0.00,,,0.00,WUHU216HW,2013-03-27 16:26:00,
2013-03-27 09:31:00,54.7,48.0,29.72,South,180,0.9,3.4,78,0.00,,,0.00,WUHU216HW,2013-03-27 16:31:00,
2013-03-27 09:36:00,55.3,48.5,29.72,SE,135,1.6,3.1,78,0.00,,,0.00,WUHU216HW,2013-03-27 16:36:00,
2013-03-27 09:42:00,55.6,48.8,29.72,ESE,113,2.7,4.0,78,0.00,,,0.00,WUHU216HW,2013-03-27 16:42:00,
2013-03-27 09:47:00,55.8,48.6,29.72,SE,135,2.5,4.0,77,0.00,,,0.00,WUHU216HW,2013-03-27 16:47:00,
2013-03-27 09:52:00,56.3,48.8,29.72,SE,135,1.1,4.0,76,0.00,,,0.00,WUHU216HW,2013-03-27 16:52:00,
2013-03-27 09:57:00,56.7,49.1,29.72,ESE,113,3.1,3.6,76,0.00,,,0.00,WUHU216HW,2013-03-27 16:57:00,
2013-03-27 10:02:00,57.2,49.3,29.72,East,90,1.6,4.7,75,0.00,,,0.00,WUHU216HW,2013-03-27 17:02:00,
2013-03-27 10:07:00,57.6,49.3,29.72,SSE,158,0.9,4.7,74,0.00,,,0.00,WUHU216HW,2013-03-27 17:07:00,
2013-03-27 10:12:00,58.0,49.7,29.72,South,180,0.4,4.0,74,0.00,,,0.00,WUHU216HW,2013-03-27 17:12:00,
2013-03-27 10:17:00,58.5,49.9,29.72,SE,135,1.3,2.5,73,0.00,,,0.00,WUHU216HW,2013-03-27 17:17:00,
2013-03-27 10:22:00,58.7,49.7,29.72,SE,135,0.4,2.5,72,0.00,,,0.00,WUHU216HW,2013-03-27 17:22:00,
2013-03-27 10:27:00,58.9,49.5,29.72,SSE,158,1.8,2.7,71,0.00,,,0.00,WUHU216HW,2013-03-27 17:27:00,
2013-03-27 10:32:00,59.0,50.0,29.72,SSW,203,0.7,2.7,72,0.00,,,0.00,WUHU216HW,2013-03-27 17:32:00,
2013-03-27 10:37:00,59.4,50.0,29.72,SE,135,0.9,2.5,71,0.00,,,0.00,WUHU216HW,2013-03-27 17:37:00,
2013-03-27 10:42:00,59.9,50.6,29.72,SSE,158,1.6,3.1,71,0.00,,,0.00,WUHU216HW,2013-03-27 17:42:00,
2013-03-27 10:47:00,60.3,50.6,29.72,SSE,158,1.1,3.1,70,0.00,,,0.00,WUHU216HW,2013-03-27 17:47:00,
2013-03-27 10:53:00,60.8,51.1,29.72,SW,225,1.8,3.1,70,0.00,,,0.00,WUHU216HW,2013-03-27 17:53:00,
2013-03-27 10:58:00,61.2,51.0,29.72,SE,135,0.4,2.7,69,0.00,,,0.00,WUHU216HW,2013-03-27 17:58:00,
2013-03-27 11:03:00,61.7,51.5,29.72,SE,135,0.2,2.5,69,0.00,,,0.00,WUHU216HW,2013-03-27 18:03:00,
2013-03-27 11:08:00,62.3,51.6,29.72,ESE,113,2.2,4.5,68,0.00,,,0.00,WUHU216HW,2013-03-27 18:08:00,
2013-03-27 11:13:00,62.6,51.5,29.72,NE,45,0.9,4.5,67,0.00,,,0.00,WUHU216HW,2013-03-27 18:13:00,
2013-03-27 11:18:00,62.8,51.3,29.72,WSW,248,2.9,2.9,66,0.00,,,0.00,WUHU216HW,2013-03-27 18:18:00,
2013-03-27 11:23:00,63.0,51.8,29.72,WSW,248,3.6,3.6,67,0.00,,,0.00,WUHU216HW,2013-03-27 18:23:00,
2013-03-27 11:28:00,63.2,51.2,29.72,SSW,203,2.0,4.9,65,0.00,,,0.00,WUHU216HW,2013-03-27 18:28:00,
2013-03-27 11:33:00,63.5,51.6,29.72,NE,45,4.5,4.9,65,0.00,,,0.00,WUHU216HW,2013-03-27 18:33:00,
2013-03-27 11:38:00,63.9,51.8,29.72,SE,135,1.1,4.5,65,0.00,,,0.00,WUHU216HW,2013-03-27 18:38:00,
2013-03-27 11:43:00,64.4,51.5,29.72,SW,225,2.7,3.4,63,0.00,,,0.00,WUHU216HW,2013-03-27 18:43:00,
2013-03-27 11:48:00,64.8,52.3,29.72,SSW,203,1.8,2.7,64,0.00,,,0.00,WUHU216HW,2013-03-27 18:48:00,
2013-03-27 11:53:00,65.0,51.6,29.72,NW,315,2.5,2.5,62,0.00,,,0.00,WUHU216HW,2013-03-27 18:53:00,
2013-03-27 11:59:00,65.5,52.1,29.72,SW,225,0.4,5.4,62,0.00,,,0.00,WUHU216HW,2013-03-27 18:59:00,
2013-03-27 12:03:00,66.2,52.5,29.72,WSW,248,1.8,5.4,61,0.00,,,0.00,WUHU216HW,2013-03-27 19:03:00,
2013-03-27 12:09:00,66.6,51.8,29.72,SW,225,4.0,4.0,59,0.00,,,0.00,WUHU216HW,2013-03-27 19:09:00,
2013-03-27 12:14:00,67.0,52.7,29.72,East,90,0.7,4.0,60,0.00,,,0.00,WUHU216HW,2013-03-27 19:14:00,
2013-03-27 12:19:00,67.3,52.5,29.71,SSW,203,0.7,1.8,59,0.00,,,0.00,WUHU216HW,2013-03-27 19:19:00,
2013-03-27 12:24:00,67.1,51.8,29.71,NW,315,1.1,4.0,58,0.00,,,0.00,WUHU216HW,2013-03-27 19:24:00,
2013-03-27 12:29:00,67.0,52.2,29.71,SE,135,0.9,4.0,59,0.00,,,0.00,WUHU216HW,2013-03-27 19:29:00,
2013-03-27 12:34:00,67.3,52.5,29.71,SW,225,0.9,1.3,59,0.00,,,0.00,WUHU216HW,2013-03-27 19:34:00,
2013-03-27 12:39:00,68.2,52.8,29.71,SW,225,0.4,3.4,58,0.00,,,0.00,WUHU216HW,2013-03-27 19:39:00,
2013-03-27 12:44:00,68.8,52.4,29.71,South,180,1.8,3.4,56,0.00,,,0.00,WUHU216HW,2013-03-27 19:44:00,
2013-03-27 12:49:00,68.6,51.8,29.71,ESE,113,0.7,2.5,55,0.00,,,0.00,WUHU216HW,2013-03-27 19:49:00,
2013-03-27 12:54:00,68.2,51.4,29.71,West,270,0.4,1.3,55,0.00,,,0.00,WUHU216HW,2013-03-27 19:54:00,
2013-03-27 12:59:00,67.9,52.0,29.71,West,270,1.8,4.0,57,0.00,,,0.00,WUHU216HW,2013-03-27 19:59:00,
2013-03-27 13:04:00,67.5,52.2,29.71,WSW,248,2.5,4.0,58,0.00,,,0.00,WUHU216HW,2013-03-27 20:04:00,
2013-03-27 13:09:00,67.3,52.0,29.70,WSW,248,0.4,2.5,58,0.00,,,0.00,WUHU216HW,2013-03-27 20:09:00,
2013-03-27 13:14:00,66.8,52.0,29.70,West,270,2.0,4.7,59,0.00,,,0.00,WUHU216HW,2013-03-27 20:14:00,
2013-03-27 13:19:00,66.8,52.5,29.70,West,270,4.0,4.7,60,0.00,,,0.00,WUHU216HW,2013-03-27 20:19:00,
2013-03-27 13:24:00,67.0,52.2,29.70,WSW,248,1.1,4.0,59,0.00,,,0.00,WUHU216HW,2013-03-27 20:24:00,
2013-03-27 13:29:00,67.1,52.8,29.70,WSW,248,0.4,3.4,60,0.00,,,0.00,WUHU216HW,2013-03-27 20:29:00,
2013-03-27 13:35:00,67.3,52.5,29.70,WSW,248,4.3,4.3,59,0.00,,,0.00,WUHU216HW,2013-03-27 20:35:00,
2013-03-27 13:40:00,67.3,52.5,29.70,West,270,2.5,4.3,59,0.00,,,0.00,WUHU216HW,2013-03-27 20:40:00,
2013-03-27 13:45:00,67.1,52.8,29.70,WSW,248,1.6,6.5,60,0.00,,,0.00,WUHU216HW,2013-03-27 20:45:00,
2013-03-27 13:50:00,67.1,52.8,29.70,WSW,248,3.8,6.5,60,0.00,,,0.00,WUHU216HW,2013-03-27 20:50:00,
2013-03-27 13:55:00,67.0,52.2,29.71,SW,225,4.7,5.4,59,0.00,,,0.00,WUHU216HW,2013-03-27 20:55:00,
2013-03-27 14:00:00,66.8,52.5,29.70,West,270,3.8,6.0,60,0.00,,,0.00,WUHU216HW,2013-03-27 21:00:00,
2013-03-27 14:05:00,66.6,52.7,29.70,SW,225,2.5,5.8,61,0.00,,,0.00,WUHU216HW,2013-03-27 21:05:00,
2013-03-27 14:10:00,67.0,53.1,29.70,WNW,293,1.6,4.7,61,0.00,,,0.00,WUHU216HW,2013-03-27 21:10:00,
2013-03-27 14:15:00,67.1,53.3,29.70,WSW,248,0.7,4.7,61,0.00,,,0.00,WUHU216HW,2013-03-27 21:15:00,
2013-03-27 14:20:00,67.1,53.6,29.70,SW,225,1.1,4.7,62,0.00,,,0.00,WUHU216HW,2013-03-27 21:20:00,
2013-03-27 14:25:00,67.1,52.4,29.70,SW,225,4.9,6.3,59,0.00,,,0.00,WUHU216HW,2013-03-27 21:25:00,
2013-03-27 14:30:00,66.6,52.4,29.70,WSW,248,2.2,6.3,60,0.00,,,0.00,WUHU216HW,2013-03-27 21:30:00,
2013-03-27 14:35:00,66.6,53.2,29.70,WSW,248,0.4,6.0,62,0.00,,,0.00,WUHU216HW,2013-03-27 21:35:00,
2013-03-27 14:40:00,66.6,53.2,29.70,West,270,2.2,6.0,62,0.00,,,0.00,WUHU216HW,2013-03-27 21:40:00,
2013-03-27 14:45:00,66.6,53.2,29.70,West,270,1.8,3.6,62,0.00,,,0.00,WUHU216HW,2013-03-27 21:45:00,
2013-03-27 14:50:00,66.6,53.2,29.70,SW,225,2.2,3.6,62,0.00,,,0.00,WUHU216HW,2013-03-27 21:50:00,
2013-03-27 14:55:00,66.6,52.7,29.70,West,270,0.7,4.5,61,0.00,,,0.00,WUHU216HW,2013-03-27 21:55:00,
2013-03-27 15:00:00,66.6,52.7,29.70,WSW,248,1.1,4.5,61,0.00,,,0.00,WUHU216HW,2013-03-27 22:00:00,
2013-03-27 15:05:00,66.6,54.0,29.70,WNW,293,5.1,5.1,64,0.00,,,0.00,WUHU216HW,2013-03-27 22:05:00,
2013-03-27 15:11:00,66.6,53.2,29.70,West,270,3.4,5.1,62,0.00,,,0.00,WUHU216HW,2013-03-27 22:11:00,
2013-03-27 15:16:00,66.6,53.2,29.70,WNW,293,0.0,3.6,62,0.00,,,0.00,WUHU216HW,2013-03-27 22:16:00,
2013-03-27 15:21:00,66.4,53.0,29.70,WNW,293,2.0,6.0,62,0.00,,,0.00,WUHU216HW,2013-03-27 22:21:00,
2013-03-27 15:26:00,66.4,53.0,29.70,WNW,293,6.3,6.3,62,0.00,,,0.00,WUHU216HW,2013-03-27 22:26:00,
2013-03-27 15:31:00,66.4,53.5,29.70,NNE,23,2.5,6.3,63,0.00,,,0.00,WUHU216HW,2013-03-27 22:31:00,
2013-03-27 15:36:00,66.8,53.7,29.70,WNW,293,4.3,5.1,63,0.00,,,0.00,WUHU216HW,2013-03-27 22:36:00,
2013-03-27 15:41:00,67.3,53.8,29.70,WSW,248,3.8,5.4,62,0.00,,,0.00,WUHU216HW,2013-03-27 22:41:00,
2013-03-27 15:46:00,67.9,53.9,29.70,NNW,338,3.4,5.4,61,0.00,,,0.00,WUHU216HW,2013-03-27 22:46:00,
2013-03-27 15:51:00,68.2,54.3,29.70,West,270,1.8,4.7,61,0.00,,,0.00,WUHU216HW,2013-03-27 22:51:00,
2013-03-27 15:56:00,68.4,54.9,29.70,West,270,5.4,5.4,62,0.00,,,0.00,WUHU216HW,2013-03-27 22:56:00,
2013-03-27 16:02:00,67.9,53.9,29.70,NW,315,0.4,5.4,61,0.00,,,0.00,WUHU216HW,2013-03-27 23:02:00,
2013-03-27 16:07:00,67.5,54.0,29.70,WSW,248,2.5,5.4,62,0.00,,,0.00,WUHU216HW,2013-03-27 23:07:00,
2013-03-27 16:12:00,67.5,53.6,29.70,NNW,338,3.8,5.4,61,0.00,,,0.00,WUHU216HW,2013-03-27 23:12:00,
2013-03-27 16:17:00,68.0,54.1,29.70,WNW,293,1.1,4.3,61,0.00,,,0.00,WUHU216HW,2013-03-27 23:17:00,
2013-03-27 16:22:00,68.2,54.3,29.70,NNE,23,5.1,5.1,61,0.00,,,0.00,WUHU216HW,2013-03-27 23:22:00,
2013-03-27 16:27:00,67.7,53.7,29.70,NW,315,3.4,6.7,61,0.00,,,0.00,WUHU216HW,2013-03-27 23:27:00,
2013-03-27 16:32:00,67.1,54.1,29.70,WNW,293,4.7,6.7,63,0.00,,,0.00,WUHU216HW,2013-03-27 23:32:00,
2013-03-27 16:37:00,66.8,53.7,29.70,NW,315,2.5,6.3,63,0.00,,,0.00,WUHU216HW,2013-03-27 23:37:00,
2013-03-27 16:42:00,66.6,53.7,29.70,NNW,338,6.3,6.3,63,0.00,,,0.00,WUHU216HW,2013-03-27 23:42:00,
2013-03-27 16:47:00,66.8,53.7,29.70,NW,315,5.1,6.3,63,0.00,,,0.00,WUHU216HW,2013-03-27 23:47:00,
2013-03-27 16:52:00,66.6,53.7,29.70,West,270,1.1,5.1,63,0.00,,,0.00,WUHU216HW,2013-03-27 23:52:00,
2013-03-27 16:57:00,66.4,53.8,29.70,WNW,293,3.4,4.9,64,0.00,,,0.00,WUHU216HW,2013-03-27 23:57:00,
2013-03-27 17:02:00,66.2,54.1,29.70,NW,315,1.8,5.1,65,0.00,,,0.00,WUHU216HW,2013-03-28 00:02:00,
2013-03-27 17:08:00,65.7,53.6,29.70,NW,315,8.5,8.5,65,0.00,,,0.00,WUHU216HW,2013-03-28 00:08:00,
2013-03-27 17:13:00,65.2,53.5,29.70,West,270,2.0,8.5,66,0.00,,,0.00,WUHU216HW,2013-03-28 00:13:00,
2013-03-27 17:18:00,65.0,53.3,29.70,NW,315,2.2,6.3,66,0.00,,,0.00,WUHU216HW,2013-03-28 00:18:00,
2013-03-27 17:23:00,64.8,53.2,29.71,NNW,338,2.7,6.3,66,0.00,,,0.00,WUHU216HW,2013-03-28 00:23:00,
2013-03-27 17:28:00,64.8,53.6,29.70,NW,315,6.5,6.5,67,0.00,,,0.00,WUHU216HW,2013-03-28 00:28:00,
2013-03-27 17:33:00,64.4,53.6,29.70,NW,315,3.1,6.5,68,0.00,,,0.00,WUHU216HW,2013-03-28 00:33:00,
2013-03-27 17:38:00,64.3,53.5,29.70,NNW,338,4.7,7.4,68,0.00,,,0.00,WUHU216HW,2013-03-28 00:38:00,
2013-03-27 17:43:00,64.1,53.7,29.70,North,0,2.2,7.4,69,0.00,,,0.00,WUHU216HW,2013-03-28 00:43:00,
2013-03-27 17:48:00,64.1,53.7,29.70,NNE,23,3.6,4.7,69,0.00,,,0.00,WUHU216HW,2013-03-28 00:48:00,
2013-03-27 17:53:00,64.1,53.7,29.70,NW,315,5.1,6.3,69,0.00,,,0.00,WUHU216HW,2013-03-28 00:53:00,
2013-03-27 17:58:00,63.7,53.8,29.70,NNW,338,4.0,6.9,70,0.00,,,0.00,WUHU216HW,2013-03-28 00:58:00,
2013-03-27 18:03:00,63.4,53.5,29.71,NNW,338,0.7,6.9,70,0.00,,,0.00,WUHU216HW,2013-03-28 01:03:00,
2013-03-27 18:09:00,63.2,53.6,29.71,NW,315,5.4,5.4,71,0.00,,,0.00,WUHU216HW,2013-03-28 01:09:00,
2013-03-27 18:14:00,63.0,53.8,29.71,North,0,3.1,6.9,72,0.00,,,0.00,WUHU216HW,2013-03-28 01:14:00,
2013-03-27 18:19:00,62.5,53.6,29.71,NNW,338,1.8,6.9,73,0.00,,,0.00,WUHU216HW,2013-03-28 01:19:00,
2013-03-27 18:24:00,62.3,53.1,29.71,NNW,338,6.3,6.3,72,0.00,,,0.00,WUHU216HW,2013-03-28 01:24:00,
2013-03-27 18:29:00,62.1,53.4,29.71,NNW,338,6.9,6.9,73,0.00,,,0.00,WUHU216HW,2013-03-28 01:29:00,
2013-03-27 18:34:00,61.9,52.8,29.71,NNW,338,3.6,6.9,72,0.00,,,0.00,WUHU216HW,2013-03-28 01:34:00,
2013-03-27 18:39:00,61.9,53.2,29.71,North,0,4.7,6.0,73,0.00,,,0.00,WUHU216HW,2013-03-28 01:39:00,
2013-03-27 18:44:00,61.7,53.0,29.71,North,0,2.5,8.3,73,0.00,,,0.00,WUHU216HW,2013-03-28 01:44:00,
2013-03-27 18:49:00,61.6,52.8,29.71,NNW,338,8.7,8.7,73,0.00,,,0.00,WUHU216HW,2013-03-28 01:49:00,
2013-03-27 18:54:00,61.6,52.8,29.71,NNW,338,0.9,8.7,73,0.00,,,0.00,WUHU216HW,2013-03-28 01:54:00,
2013-03-27 18:59:00,61.4,53.0,29.71,North,0,2.9,5.1,74,0.00,,,0.00,WUHU216HW,2013-03-28 01:59:00,
2013-03-27 19:04:00,61.4,53.0,29.72,North,0,2.5,5.1,74,0.00,,,0.00,WUHU216HW,2013-03-28 02:04:00,
2013-03-27 19:09:00,61.4,53.0,29.72,NNW,338,6.3,6.3,74,0.00,,,0.00,WUHU216HW,2013-03-28 02:09:00,
2013-03-27 19:14:00,61.2,52.9,29.72,North,0,8.1,8.1,74,0.00,,,0.00,WUHU216HW,2013-03-28 02:14:00,
2013-03-27 19:19:00,61.0,52.8,29.72,North,0,4.5,8.1,74,0.00,,,0.00,WUHU216HW,2013-03-28 02:19:00,
2013-03-27 19:24:00,60.8,52.6,29.72,NNE,23,1.8,6.3,74,0.00,,,0.00,WUHU216HW,2013-03-28 02:24:00,
2013-03-27 19:29:00,60.8,52.6,29.72,NNW,338,0.7,6.3,74,0.00,,,0.00,WUHU216HW,2013-03-28 02:29:00,
2013-03-27 19:35:00,60.8,52.6,29.72,North,0,5.1,6.3,74,0.00,,,0.00,WUHU216HW,2013-03-28 02:35:00,
2013-03-27 19:40:00,60.7,53.1,29.73,NW,315,4.9,5.1,76,0.00,,,0.00,WUHU216HW,2013-03-28 02:40:00,
2013-03-27 19:45:00,60.5,52.9,29.73,North,0,3.8,4.9,76,0.00,,,0.00,WUHU216HW,2013-03-28 02:45:00,
2013-03-27 19:50:00,60.3,52.7,29.73,NNE,23,3.1,6.3,76,0.00,,,0.00,WUHU216HW,2013-03-28 02:50:00,
2013-03-27 19:55:00,60.3,52.7,29.73,North,0,4.7,6.3,76,0.00,,,0.00,WUHU216HW,2013-03-28 02:55:00,
2013-03-27 20:01:00,60.1,52.6,29.73,NW,315,3.8,4.7,76,0.00,,,0.00,WUHU216HW,2013-03-28 03:01:00,
2013-03-27 20:06:00,60.1,52.6,29.73,NNW,338,2.5,5.1,76,0.00,,,0.00,WUHU216HW,2013-03-28 03:06:00,
2013-03-27 20:11:00,59.9,52.4,29.73,North,0,3.4,5.1,76,0.00,,,0.00,WUHU216HW,2013-03-28 03:11:00,
2013-03-27 20:16:00,59.9,52.4,29.73,North,0,0.9,4.3,76,0.00,,,0.00,WUHU216HW,2013-03-28 03:16:00,
2013-03-27 20:21:00,59.8,52.2,29.73,North,0,0.0,3.4,76,0.00,,,0.00,WUHU216HW,2013-03-28 03:21:00,
2013-03-27 20:27:00,59.8,52.2,29.73,NW,315,2.9,2.9,76,0.00,,,0.00,WUHU216HW,2013-03-28 03:27:00,
2013-03-27 20:32:00,59.8,52.6,29.73,NW,315,2.0,2.9,77,0.00,,,0.00,WUHU216HW,2013-03-28 03:32:00,
2013-03-27 20:37:00,59.6,52.4,29.73,NNW,338,0.9,2.0,77,0.00,,,0.00,WUHU216HW,2013-03-28 03:37:00,
2013-03-27 20:42:00,59.4,52.2,29.74,NW,315,0.7,3.1,77,0.00,,,0.00,WUHU216HW,2013-03-28 03:42:00,
2013-03-27 20:47:00,59.4,52.2,29.74,NNW,338,0.4,3.1,77,0.00,,,0.00,WUHU216HW,2013-03-28 03:47:00,
2013-03-27 20:52:00,59.2,52.0,29.74,North,0,0.0,2.5,77,0.00,,,0.00,WUHU216HW,2013-03-28 03:52:00,
2013-03-27 20:57:00,59.2,52.0,29.74,NNW,338,0.4,2.7,77,0.00,,,0.00,WUHU216HW,2013-03-28 03:57:00,
2013-03-27 21:00:00,59.2,52.0,29.74,NNW,338,2.0,2.9,77,0.00,,,0.00,WUHU216HW,2013-03-28 04:00:00,
2013-03-27 21:01:00,59.2,52.0,29.74,NNW,338,0.4,2.9,77,0.00,,,0.00,WUHU216HW,2013-03-28 04:01:00,
2013-03-27 21:06:00,59.0,51.8,29.74,NNW,338,1.6,2.9,77,0.00,,,0.00,WUHU216HW,2013-03-28 04:06:00,
2013-03-27 21:12:00,59.0,51.8,29.74,NNE,23,2.0,3.4,77,0.00,,,0.00,WUHU216HW,2013-03-28 04:12:00,
2013-03-27 21:17:00,59.0,51.8,29.74,NNW,338,0.4,3.4,77,0.00,,,0.00,WUHU216HW,2013-03-28 04:17:00,
2013-03-27 21:22:00,59.0,51.8,29.74,NNE,23,1.1,2.2,77,0.00,,,0.00,WUHU216HW,2013-03-28 04:22:00,
2013-03-27 21:27:00,59.0,51.8,29.75,North,0,0.2,1.1,77,0.00,,,0.00,WUHU216HW,2013-03-28 04:27:00,
2013-03-27 21:32:00,59.0,51.8,29.75,North,0,0.7,1.8,77,0.00,,,0.00,WUHU216HW,2013-03-28 04:32:00,
2013-03-27 21:41:00,59.0,51.5,29.75,North,0,0.0,0.7,76,0.00,,,0.00,WUHU216HW,2013-03-28 04:41:00,
2013-03-27 21:47:00,58.9,51.7,29.75,NNW,338,0.2,0.4,77,0.00,,,0.00,WUHU216HW,2013-03-28 04:47:00,
2013-03-27 21:52:00,58.9,51.7,29.75,NNW,338,0.2,0.4,77,0.00,,,0.00,WUHU216HW,2013-03-28 04:52:00,
2013-03-27 21:57:00,58.9,51.7,29.75,NNW,338,0.0,0.2,77,0.00,,,0.00,WUHU216HW,2013-03-28 04:57:00,
2013-03-27 22:02:00,58.7,51.5,29.75,North,0,0.2,0.2,77,0.00,,,0.00,WUHU216HW,2013-03-28 05:02:00,
2013-03-27 22:07:00,58.7,51.5,29.75,ENE,68,0.4,0.4,77,0.00,,,0.00,WUHU216HW,2013-03-28 05:07:00,
2013-03-27 22:12:00,58.7,51.5,29.75,ENE,68,0.4,0.4,77,0.00,,,0.00,WUHU216HW,2013-03-28 05:12:00,
2013-03-27 22:37:00,58.1,51.3,29.75,SE,135,0.4,0.4,78,0.00,,,0.00,WUHU216HW,2013-03-28 05:37:00,
2013-03-27 22:42:00,58.0,51.1,29.75,SE,135,0.0,0.4,78,0.00,,,0.00,WUHU216HW,2013-03-28 05:42:00,
2013-03-27 22:47:00,58.0,51.1,29.75,ESE,113,0.0,0.2,78,0.00,,,0.00,WUHU216HW,2013-03-28 05:47:00,
2013-03-27 22:52:00,58.0,51.1,29.75,ESE,113,1.1,1.1,78,0.00,,,0.00,WUHU216HW,2013-03-28 05:52:00,
2013-03-27 22:57:00,57.8,50.9,29.75,SE,135,0.0,1.1,78,0.00,,,0.00,WUHU216HW,2013-03-28 05:57:00,
2013-03-27 23:02:00,57.6,50.8,29.76,SSE,158,0.9,1.6,78,0.00,,,0.00,WUHU216HW,2013-03-28 06:02:00,
2013-03-27 23:07:00,57.6,50.8,29.76,ESE,113,0.7,1.6,78,0.00,,,0.00,WUHU216HW,2013-03-28 06:07:00,
2013-03-27 23:12:00,57.6,50.8,29.76,East,90,0.4,1.3,78,0.00,,,0.00,WUHU216HW,2013-03-28 06:12:00,
2013-03-27 23:17:00,57.2,50.4,29.75,ESE,113,0.2,1.3,78,0.00,,,0.00,WUHU216HW,2013-03-28 06:17:00,
2013-03-27 23:22:00,57.2,50.4,29.75,East,90,0.4,0.7,78,0.00,,,0.00,WUHU216HW,2013-03-28 06:22:00,
2013-03-27 23:27:00,57.1,50.2,29.75,ESE,113,0.2,0.7,78,0.00,,,0.00,WUHU216HW,2013-03-28 06:27:00,
2013-03-27 23:33:00,57.1,50.2,29.75,East,90,0.0,0.4,78,0.00,,,0.00,WUHU216HW,2013-03-28 06:33:00,
2013-03-27 23:38:00,56.9,50.0,29.75,SE,135,0.2,0.7,78,0.00,,,0.00,WUHU216HW,2013-03-28 06:38:00,
2013-03-27 23:43:00,56.5,49.7,29.75,SE,135,0.0,0.7,78,0.00,,,0.00,WUHU216HW,2013-03-28 06:43:00,
2013-03-27 23:48:00,56.5,50.0,29.75,SSE,158,0.2,0.4,79,0.00,,,0.00,WUHU216HW,2013-03-28 06:48:00,
2013-03-27 23:53:00,56.3,49.9,29.75,SSE,158,0.2,1.3,79,0.00,,,0.00,WUHU216HW,2013-03-28 06:53:00,
2013-03-27 23:58:00,56.2,49.7,29.75,SE,135,0.4,1.3,79,0.00,,,0.00,WUHU216HW,2013-03-28 06:58:00,